GFSMA_850_rhum_078.txt.gz
RH
68 40 43 37 29 35 35 44 45 57 76 76 75 77 74 72 66 65 59 49 42 31 27 20 15 12 12 10 10 10 9 9 9 9 9 9 9 8 8 8 8 8 8
69 48 65 66 59 64 68 80 83 89 87 78 71 73 70 66 66 68 62 56 45 33 28 22 15 12 12 12 12 11 11 11 12 12 12 11 10 9 9 8 8 8 9
69 56 61 65 71 76 76 85 86 89 87 90 81 68 66 65 69 70 67 59 42 40 30 24 17 15 15 17 18 14 14 14 16 16 15 13 11 10 9 9 8 9 11
67 63 54 56 63 66 73 83 85 89 87 85 82 72 63 65 66 68 71 59 40 39 34 27 20 18 19 19 19 16 15 15 17 18 19 18 15 12 10 9 9 12 23
62 57 53 48 54 58 68 70 82 88 88 80 73 68 64 64 71 71 70 60 41 36 36 32 27 21 21 20 19 18 16 16 17 18 19 18 16 13 12 11 12 24 66
72 69 62 50 54 58 61 68 76 84 84 75 72 69 68 67 72 74 72 70 47 39 36 35 32 28 24 22 20 20 18 17 17 18 20 20 18 15 12 13 17 34 68
68 67 63 65 62 61 57 61 66 80 89 84 81 74 66 68 73 77 76 74 64 43 40 36 34 31 28 25 22 22 20 19 19 20 20 20 19 16 13 12 14 25 60
79 72 68 68 72 73 75 71 71 75 81 85 81 80 70 67 70 77 79 79 74 62 46 41 36 35 33 31 28 26 26 24 22 22 22 20 18 16 14 13 15 30 62
79 86 79 76 80 82 80 79 77 77 75 79 80 76 73 74 66 66 70 79 74 67 61 52 44 39 37 35 33 29 29 28 26 25 24 21 19 16 15 14 22 61 87
78 73 73 81 81 91 92 88 87 86 90 85 83 78 73 73 73 66 65 63 67 64 63 59 53 46 41 39 35 33 33 33 31 28 26 22 20 16 16 16 35 85 95
65 70 74 93 97 98 99 99 97 96 95 92 85 77 77 78 76 64 61 60 61 62 63 61 55 50 46 42 39 40 36 35 34 30 26 22 19 17 19 37 53 47 61
86 73 72 80 86 92 96 100 100 100 99 98 100 96 87 83 82 78 61 61 62 63 60 56 54 52 47 45 48 43 40 42 37 32 25 22 20 18 13 11 21 26 51
91 88 92 93 97 99 100 99 99 99 99 100 100 99 99 96 94 90 86 80 75 68 62 63 64 69 56 55 51 57 79 71 70 35 31 26 46 46 10 8 7 22 28
96 100 100 98 98 94 98 98 98 98 99 100 100 100 100 98 98 99 96 91 84 73 69 74 84 86 70 76 86 98 91 81 63 56 55 75 90 69 13 8 6 6 11
99 99 98 97 99 96 97 99 97 96 98 99 99 100 100 100 100 100 100 99 91 91 94 95 94 94 99 96 94 93 85 76 70 77 94 82 22 9 11 9 7 7 10
64 62 95 99 99 99 97 98 98 100 99 100 98 100 98 100 100 100 100 100 99 99 97 98 96 95 98 95 97 84 86 97 100 89 23 11 11 16 22 10 9 23 79
56 59 52 64 99 99 97 97 99 98 99 100 100 100 100 100 100 100 100 100 99 99 95 100 98 98 92 88 97 100 99 67 23 14 12 14 13 15 15 27 49 65 85
68 65 68 81 100 100 98 99 97 99 95 99 100 100 100 100 100 100 100 98 91 88 93 94 96 100 100 99 73 31 18 16 19 20 26 20 28 46 56 62 72 73 80
96 95 98 95 96 98 98 99 99 98 98 96 98 100 100 100 100 97 92 86 96 96 100 100 98 75 37 20 20 26 30 33 35 28 25 22 28 41 41 58 62 68 79
98 97 100 99 100 99 98 97 98 100 98 99 99 99 98 91 81 85 98 99 100 94 86 61 27 16 22 43 52 47 59 62 36 25 23 34 46 44 45 48 46 47 49
97 97 96 97 95 96 96 97 100 98 99 98 95 86 84 94 99 100 98 98 80 28 18 15 19 44 62 58 78 79 73 51 20 28 50 47 56 49 47 46 48 53 58
88 86 89 88 86 88 85 86 92 91 90 90 93 95 100 99 100 96 41 28 19 19 16 19 26 47 51 75 72 61 48 35 49 55 60 43 53 49 49 52 57 59 66
89 88 91 93 91 94 97 98 98 97 97 99 100 100 98 91 74 45 20 16 23 27 29 31 34 43 40 42 37 30 35 49 54 57 74 53 55 59 54 55 56 56 59
95 94 95 95 90 94 96 96 98 99 97 81 47 22 21 17 15 15 18 22 27 31 39 38 34 29 31 29 34 44 60 64 62 65 80 66 60 64 56 56 57 56 59
96 96 95 93 93 96 97 90 55 32 31 24 17 15 15 16 15 13 12 15 20 30 32 34 29 35 36 53 66 70 66 77 65 59 66 76 74 82 60 50 54 58 59
90 93 91 93 93 79 55 31 18 15 14 15 15 16 16 14 12 13 16 18 19 23 24 25 31 47 60 62 69 76 81 85 98 87 82 85 78 92 92 59 60 58 60

GFSMA_850_rhum_081.txt.gz
RH
63 56 34 30 27 29 26 28 30 37 48 56 61 75 73 74 71 63 62 58 44 36 29 25 18 13 11 10 11 11 11 10 11 11 11 11 10 10 9 9 8 9 9
69 66 38 37 36 32 37 38 41 52 58 62 73 76 76 72 64 63 64 59 54 40 32 28 20 15 13 14 16 14 13 13 14 14 14 13 12 10 10 9 9 9 10
68 66 44 47 48 48 57 61 69 75 88 88 72 71 74 72 66 64 65 62 60 41 38 30 25 17 17 22 23 18 15 15 16 17 17 17 14 13 12 10 9 9 10
56 57 54 51 53 59 67 70 82 83 90 90 84 83 73 66 65 65 65 65 63 52 40 35 30 20 20 24 24 23 18 17 18 21 22 22 21 18 15 13 12 11 12
61 55 50 46 49 50 53 60 73 80 88 88 84 87 81 69 61 64 66 66 64 61 40 40 34 28 21 24 26 24 24 19 18 19 21 23 24 23 20 17 14 16 26
67 62 57 54 48 44 44 50 58 72 80 87 87 79 77 70 64 63 69 71 68 66 54 39 38 35 29 25 25 25 25 24 21 20 21 23 24 24 22 19 16 15 16
69 69 67 66 63 53 50 51 54 62 67 85 91 85 74 70 66 66 68 73 73 71 69 53 41 39 36 32 28 26 24 22 21 20 20 21 22 23 22 18 15 18 19
73 71 67 67 71 69 64 64 66 66 69 81 87 84 80 72 67 62 64 71 75 75 74 69 53 43 40 37 33 30 27 24 24 23 23 23 23 21 21 19 20 29 26
70 75 65 69 70 77 75 72 74 76 75 79 84 82 78 72 63 57 57 63 72 77 76 73 64 54 47 41 38 35 32 28 27 27 26 26 25 23 22 22 42 70 76
69 70 84 86 82 86 88 84 83 84 85 84 88 89 85 69 68 69 63 62 68 75 75 69 66 62 57 52 50 45 42 41 35 34 31 29 28 28 31 32 40 87 94
67 75 79 86 91 95 99 99 97 95 93 94 92 91 89 88 82 78 71 66 66 66 66 63 78 73 69 63 53 48 48 57 55 43 37 34 39 55 81 83 72 89 59
78 73 70 76 77 98 98 100 100 98 95 96 96 97 96 94 90 86 82 80 69 65 62 66 66 66 64 60 55 56 59 68 63 62 65 64 61 59 60 40 37 36 62
94 90 80 89 97 98 100 100 98 100 98 99 99 92 96 96 98 96 95 90 79 70 70 66 68 66 70 66 74 83 91 92 89 86 97 95 91 65 45 66 83 51 29
92 88 96 97 98 98 98 98 93 90 89 90 97 99 97 98 100 100 100 100 95 90 85 78 75 73 84 83 93 99 99 92 100 100 92 79 69 74 94 68 22 13 12
84 83 84 88 99 97 97 97 96 97 88 88 93 95 99 99 100 100 100 100 100 99 94 91 88 94 98 99 92 99 100 100 98 97 94 85 99 84 35 30 14 20 25
51 73 87 92 98 97 96 98 96 95 94 88 92 85 99 100 100 100 100 100 100 100 100 100 99 95 97 100 98 100 99 91 91 99 99 74 27 24 22 16 23 24 55
47 52 60 57 56 90 99 98 98 98 95 92 95 100 100 100 100 100 99 100 99 100 100 99 99 100 99 100 94 90 96 99 98 58 23 18 29 29 28 40 54 91 98
62 63 65 65 61 68 93 98 97 98 100 98 93 90 91 96 97 100 100 100 100 99 100 96 97 100 98 100 100 87 54 26 22 28 30 34 35 29 38 54 81 92 100
81 79 84 95 98 100 100 97 96 97 97 97 97 94 98 100 100 100 99 95 89 93 99 98 99 98 82 51 28 25 34 37 33 37 35 31 24 21 40 59 94 96 88
99 98 99 100 99 98 97 98 99 99 98 98 99 100 100 99 98 92 88 96 99 100 98 94 68 28 25 26 33 32 31 36 40 43 24 25 41 44 48 52 52 52 53
98 98 97 97 96 94 94 92 92 97 100 100 99 97 92 88 91 97 100 99 99 90 40 42 16 18 30 38 42 53 45 33 24 24 47 51 48 50 51 52 54 54 54
89 88 87 87 86 86 84 88 90 88 88 87 87 90 95 97 98 99 99 88 73 48 17 16 21 26 45 47 50 54 37 23 34 60 52 45 51 47 50 52 53 55 57
86 85 88 91 87 89 95 95 94 91 94 95 94 98 97 95 63 26 19 17 20 27 33 37 48 50 44 46 34 26 28 45 59 59 57 42 52 50 53 54 55 54 54
88 87 90 91 89 88 88 92 96 96 92 72 49 27 22 18 16 16 18 23 29 36 45 47 41 34 27 31 32 45 59 60 62 65 69 55 61 50 47 48 52 57 61
98 96 92 89 86 89 90 68 42 35 34 22 15 14 15 16 15 14 15 18 22 26 30 32 29 29 35 54 82 73 68 68 58 56 66 79 78 58 48 45 51 55 60
94 92 90 91 89 77 56 28 15 14 14 14 14 15 14 14 16 17 16 17 18 19 21 23 27 40 60 64 67 69 68 69 68 70 77 86 84 90 79 60 55 54 57

GFSMA_850_rhum_084.txt.gz
RH
38 38 36 33 31 29 31 36 35 34 41 54 61 64 71 68 68 64 62 61 59 47 36 29 23 16 11 11 12 12 13 12 13 13 14 13 12 11 10 10 10 9 10
51 54 51 33 31 27 28 29 33 34 42 53 61 66 69 71 68 68 63 62 61 56 44 34 28 20 14 14 16 17 14 13 15 15 16 16 15 13 12 11 10 10 10
60 54 58 39 37 36 35 34 40 47 52 68 77 75 72 70 70 67 66 65 65 61 52 38 33 26 18 18 22 22 17 16 17 18 18 19 18 16 16 14 12 11 11
62 62 58 46 41 39 42 45 50 58 68 76 77 82 74 73 70 66 65 64 66 65 63 44 38 33 23 20 25 25 22 18 17 19 21 22 22 20 19 18 15 14 18
65 65 56 52 46 44 44 49 57 62 68 78 85 90 84 82 76 69 61 60 64 67 67 62 42 38 32 23 23 27 26 22 19 18 20 22 23 24 22 20 19 18 20
62 63 61 62 58 51 49 51 55 66 72 82 90 90 87 85 86 77 67 60 61 68 71 69 60 42 39 34 26 30 39 26 20 18 18 19 21 22 23 22 21 18 18
67 67 68 69 66 61 55 54 57 62 68 80 90 93 92 88 82 78 70 64 63 65 70 71 70 64 47 42 38 31 44 48 24 21 20 20 22 21 22 20 20 20 24
72 72 71 69 69 68 68 64 60 63 65 75 86 90 94 85 78 72 69 67 64 65 69 72 72 72 65 53 46 45 39 41 39 36 25 24 25 25 25 28 45 52 52
69 71 70 73 73 77 75 74 71 68 70 75 77 87 86 82 68 60 58 61 64 65 67 72 73 72 70 65 58 54 51 42 36 66 58 60 48 55 66 87 96 94 87
73 75 71 68 69 83 90 86 85 83 78 78 82 84 88 87 77 72 68 66 64 65 67 69 73 74 71 69 66 78 76 74 78 64 55 93 96 81 96 95 100 100 99
88 87 75 75 78 86 91 95 97 95 91 88 87 87 88 92 92 90 85 81 80 74 71 70 71 71 70 71 78 89 81 84 83 73 80 66 72 87 92 98 98 100 97
68 72 77 82 74 89 93 94 96 96 94 98 99 96 96 96 93 93 94 92 90 88 85 77 70 68 67 71 89 86 81 92 90 95 94 98 99 97 94 98 98 99 98
66 80 84 83 82 80 85 90 90 97 93 99 89 88 87 97 97 100 100 100 100 98 96 91 86 75 78 80 78 81 91 91 98 99 98 100 99 99 99 98 97 99 99
69 76 78 90 82 83 93 96 97 92 88 90 90 88 92 96 99 100 100 100 100 100 99 97 94 92 86 82 73 89 94 100 100 100 100 100 100 100 99 98 95 97 97
57 85 93 94 85 79 85 92 97 97 98 92 85 85 81 87 99 100 98 100 100 100 98 98 99 96 91 91 95 96 100 100 100 100 99 100 98 98 98 97 72 61 93
42 47 73 91 85 78 93 98 99 91 96 96 96 90 89 89 87 87 99 100 100 100 100 100 100 100 99 99 100 97 100 100 99 98 100 99 99 85 49 34 52 65 93
50 52 60 76 91 92 91 94 91 97 98 96 96 95 90 99 99 100 100 100 100 100 100 100 100 99 100 100 100 98 98 98 99 97 64 38 34 30 47 77 87 92 96
66 65 63 63 65 63 62 78 96 98 99 98 97 94 91 91 94 93 93 95 98 98 99 100 99 100 98 100 97 99 97 64 35 36 42 43 48 48 27 23 33 85 98
83 82 82 81 80 78 96 94 98 98 97 97 98 97 93 91 91 90 95 99 98 95 92 98 98 100 100 99 84 44 38 39 44 42 49 42 27 16 16 28 41 51 72
100 100 99 99 99 99 99 98 99 97 98 99 98 97 92 94 90 95 98 93 92 96 99 98 94 55 74 82 59 44 42 45 46 40 28 16 29 39 44 46 48 50 50
98 98 98 98 98 97 96 98 98 98 98 98 88 89 92 96 92 91 93 94 96 95 93 85 78 50 30 41 43 41 41 37 28 16 25 41 44 48 50 50 50 52 53
91 91 90 89 88 90 92 92 97 96 91 87 86 88 90 93 95 96 97 95 78 49 27 18 16 20 27 32 35 35 31 19 18 42 44 42 46 44 46 51 55 54 54
86 86 85 84 86 85 86 87 86 85 86 90 92 93 90 89 81 56 24 13 13 16 20 22 28 34 32 30 29 26 25 29 52 53 53 42 47 48 53 54 51 50 55
86 84 86 87 86 83 85 89 88 87 86 74 52 36 31 23 16 13 14 15 17 22 28 30 29 30 26 26 30 35 53 59 59 60 56 51 52 46 46 47 47 55 57
88 92 89 86 84 85 89 68 46 38 33 21 13 13 13 13 13 10 11 12 14 17 23 27 30 32 32 35 68 65 60 61 64 63 63 65 56 44 40 48 50 53 60
94 93 88 88 88 64 49 24 15 14 13 12 12 12 10 10 12 14 13 15 17 19 21 23 25 27 35 55 58 59 62 66 68 68 69 78 66 67 54 45 47 54 58

GFSMA_850_rhum_090.txt.gz
RH
28 27 30 32 39 42 42 41 38 35 32 42 49 54 59 60 60 63 65 66 65 65 65 60 48 36 27 16 13 14 15 15 13 14 15 16 15 15 14 14 13 13 13
28 25 25 28 31 35 39 39 40 39 34 36 44 50 57 60 62 66 65 66 68 67 66 66 64 50 39 29 17 16 18 18 15 15 15 16 17 16 16 16 15 14 15
44 38 46 46 45 38 40 37 38 36 37 35 39 50 57 61 65 66 68 69 68 67 67 67 68 68 52 45 35 23 23 23 19 17 17 18 19 20 19 19 18 22 27
73 56 55 57 63 42 45 38 35 37 35 36 36 46 54 66 73 73 73 72 72 72 69 64 67 70 71 59 52 51 37 30 28 22 19 18 19 21 21 21 23 28 44
76 70 62 60 67 57 46 49 49 49 47 51 56 63 67 71 76 78 75 79 81 80 77 69 63 68 73 74 67 88 99 74 58 45 22 20 20 22 25 25 26 40 68
75 71 66 67 68 65 58 52 52 54 55 60 65 64 66 68 71 71 75 81 82 83 80 76 68 65 70 75 74 69 84 100 89 72 57 28 24 23 24 35 54 91 94
71 68 66 67 67 65 67 69 65 62 62 66 72 68 66 68 69 71 76 78 79 83 84 80 72 67 68 72 74 74 70 90 96 98 92 67 41 36 40 40 28 72 99
75 71 65 65 68 70 71 73 76 72 71 70 75 76 79 71 69 71 73 72 68 71 72 74 72 69 68 69 72 75 75 71 94 100 97 71 94 94 94 97 99 88 57
74 73 70 69 71 72 69 73 80 82 81 80 79 82 86 81 76 75 75 76 77 77 74 76 76 75 73 69 69 72 74 77 76 79 80 84 88 89 93 98 99 98 99
69 70 74 75 72 74 81 78 88 92 93 92 90 87 82 82 86 85 77 70 72 71 70 75 79 80 77 75 71 75 80 83 83 88 92 90 99 99 99 96 95 98 96
75 65 62 66 65 72 67 84 85 93 98 98 95 93 94 91 90 92 97 86 84 76 85 90 90 90 89 87 83 76 76 83 89 92 88 97 98 94 96 98 95 96 95
73 69 69 68 66 72 72 70 72 83 94 91 93 96 98 99 93 91 94 96 96 98 92 94 90 91 87 90 88 87 88 90 87 89 94 99 98 97 99 95 96 98 98
72 75 78 80 78 73 71 75 78 82 86 97 94 93 98 97 96 100 100 99 99 100 97 88 82 85 88 92 88 91 92 88 92 94 100 98 98 97 99 99 99 99 98
62 69 72 67 61 60 67 84 81 86 87 75 76 98 94 97 98 98 100 100 99 99 99 98 88 83 91 89 91 97 95 96 95 94 94 96 98 98 96 98 100 100 99
43 44 45 44 45 48 65 94 90 94 93 87 81 84 87 85 78 89 92 94 97 100 99 96 98 94 86 99 98 95 95 94 93 90 93 99 98 98 100 99 99 98 99
41 44 43 42 42 47 70 91 82 86 88 93 74 83 92 83 79 85 86 85 96 99 100 99 98 95 100 97 95 97 98 97 97 99 99 99 97 98 96 97 98 80 49
38 40 42 43 44 47 66 100 98 97 88 88 86 81 83 84 86 89 88 84 90 95 100 100 98 93 89 98 99 99 98 99 100 100 99 98 95 86 52 30 26 25 25
51 52 53 52 56 65 99 100 87 85 89 94 92 90 90 86 90 89 89 84 80 80 82 82 86 93 99 99 99 99 99 99 98 98 93 59 56 45 30 27 26 19 14
65 69 72 73 73 72 75 87 94 91 89 95 96 89 87 92 92 90 90 83 86 80 84 86 90 95 96 97 98 99 99 96 88 80 54 31 26 26 23 15 12 21 28
75 79 84 89 93 95 92 89 89 90 92 94 94 96 98 97 95 90 86 85 83 86 88 88 90 93 97 96 81 78 86 69 38 24 22 19 16 13 12 23 33 38 39
98 99 98 99 99 99 99 99 99 98 99 99 98 99 96 95 91 90 88 90 88 87 89 89 89 87 80 74 54 31 24 20 20 16 11 11 18 28 34 41 43 43 44
98 98 97 96 95 96 97 96 98 98 98 98 98 99 93 90 89 88 90 91 88 84 72 46 36 23 16 17 18 21 20 16 13 12 13 30 42 43 44 45 48 47 46
93 94 94 93 92 94 95 95 97 99 99 100 96 89 88 89 86 83 75 48 24 14 12 13 15 18 20 20 21 19 16 14 14 23 36 39 43 44 46 50 44 40 42
92 93 91 87 87 92 96 97 93 88 86 86 85 86 76 49 26 15 12 11 11 10 11 13 14 17 18 18 20 18 21 24 36 48 51 47 43 42 45 40 35 36 43
94 90 89 88 85 89 91 90 88 87 81 59 35 18 12 10 9 7 7 9 10 12 13 14 15 17 19 22 18 23 34 51 49 52 54 53 45 41 39 38 40 44 46
95 91 90 91 89 91 92 84 56 32 16 12 11 10 8 7 7 8 10 12 13 15 17 18 20 22 24 26 29 39 53 55 56 55 53 57 50 48 45 45 43 54 54

GFSMA_850_rhum_093.txt.gz
RH
34 34 36 42 51 47 40 39 37 38 33 38 46 52 53 56 61 63 66 66 65 65 64 66 64 60 42 33 20 16 18 20 17 15 16 18 18 18 17 16 16 16 19
32 32 34 38 38 40 41 40 39 39 37 34 38 45 50 55 59 61 64 67 67 67 67 66 66 67 64 46 39 26 19 22 23 18 17 17 18 19 19 19 19 17 19
35 30 30 30 33 36 36 36 38 38 40 38 35 40 48 56 59 62 64 65 66 68 69 68 66 68 71 70 56 44 37 27 27 25 22 20 19 20 21 22 22 23 23
66 40 42 51 55 50 37 39 35 34 36 35 38 38 44 50 61 69 71 72 71 72 75 75 69 67 71 74 74 70 59 46 43 36 32 25 22 20 20 21 23 26 51
78 73 55 59 67 63 44 46 45 41 44 43 47 50 54 58 63 64 68 71 75 78 81 81 77 70 68 72 77 80 96 90 75 65 61 46 28 22 22 23 24 24 26
84 80 73 72 71 66 59 49 48 51 54 55 56 57 59 59 62 62 65 68 74 80 84 86 82 76 69 68 72 78 90 93 93 88 78 70 56 61 76 58 66 73 66
81 80 76 76 74 65 62 64 62 59 60 61 65 62 62 63 63 63 66 69 72 78 80 80 81 78 72 68 68 71 76 86 94 85 86 86 76 81 86 90 88 88 93
78 76 73 70 68 70 70 71 73 73 73 71 72 72 74 67 65 66 69 70 68 74 76 73 72 76 75 73 70 71 76 79 98 100 91 79 81 85 85 88 89 90 91
75 73 72 71 70 73 74 75 78 80 82 83 83 83 84 78 75 73 72 72 71 72 72 73 70 71 73 74 73 71 78 82 83 97 97 91 85 90 91 95 99 96 91
73 76 77 71 71 72 72 77 83 75 88 89 91 92 87 86 87 86 79 74 72 74 80 83 84 85 86 82 84 85 83 83 90 87 87 88 95 92 97 97 93 88 96
55 59 64 67 68 67 60 62 63 71 77 94 90 94 91 94 95 97 98 88 82 72 89 93 94 92 92 85 85 84 91 91 90 95 92 98 95 99 95 92 91 99 98
72 73 66 63 66 69 68 72 76 75 80 86 93 96 94 98 97 98 99 97 96 94 97 92 93 90 89 83 89 92 93 86 87 95 98 97 99 97 96 97 95 89 100
72 70 71 74 74 75 77 81 78 76 74 78 85 93 90 90 91 98 100 100 93 100 100 90 92 93 85 74 79 91 93 91 90 91 97 99 100 94 98 91 90 94 98
62 61 70 75 76 76 78 74 68 70 80 84 83 90 78 83 86 83 90 100 99 99 100 98 92 84 80 84 85 91 94 93 93 93 98 99 99 95 95 95 95 93 94
42 41 43 47 48 49 48 46 46 62 90 88 87 86 84 86 90 88 85 87 88 99 99 94 97 84 84 91 82 97 96 93 94 94 94 92 90 99 96 96 93 92 93
37 37 37 37 39 42 44 46 58 91 100 98 94 95 85 81 83 85 77 83 85 95 100 99 94 96 87 92 94 92 92 95 95 96 98 99 100 98 97 98 94 93 79
34 34 35 37 39 38 39 41 66 97 99 99 100 98 88 84 87 86 83 82 88 89 94 97 98 100 92 83 89 96 100 100 99 92 100 97 98 98 93 73 54 38 19
39 42 45 46 47 43 47 78 85 92 96 100 84 91 92 89 87 89 84 87 88 86 86 84 82 85 84 92 97 97 100 99 98 97 97 95 83 59 56 26 18 17 11
51 54 58 60 65 72 77 93 98 99 99 93 95 98 99 92 89 88 88 89 87 83 84 81 85 87 94 94 94 96 96 93 93 88 85 64 37 20 20 16 13 12 23
61 62 69 73 78 87 87 87 89 93 94 94 94 97 95 90 92 90 93 88 83 84 82 84 88 90 90 91 94 90 79 82 64 32 22 19 17 12 10 13 21 32 36
80 86 87 93 96 97 100 99 99 99 98 98 95 96 97 98 96 93 90 86 89 88 87 87 89 89 87 82 77 62 33 22 20 18 15 11 11 16 25 33 38 37 36
99 99 98 97 97 97 98 98 98 99 99 98 99 98 98 96 94 90 87 87 88 84 81 68 45 34 25 16 16 18 20 18 16 12 12 19 30 38 40 40 36 38 40
90 91 94 92 94 93 96 97 100 97 98 98 99 100 97 89 87 86 83 79 53 24 13 11 12 13 16 18 18 17 16 14 15 16 21 38 43 42 40 40 39 36 34
89 90 91 92 92 90 93 95 96 99 99 100 96 90 86 83 66 32 14 10 10 8 8 9 10 11 14 16 15 17 17 18 22 36 44 41 42 42 44 40 34 32 36
92 94 95 91 89 87 93 99 94 88 89 88 86 71 34 14 11 9 7 7 7 8 9 10 11 13 15 14 15 18 20 30 46 47 47 47 42 40 40 36 36 40 45
96 95 93 92 92 91 92 93 92 89 75 45 15 11 10 8 7 7 8 9 10 11 12 13 16 18 21 20 22 23 33 47 49 50 51 53 47 46 45 45 42 41 50

GFSMA_850_rhum_099.txt.gz
RH
89 96 94 93 93 92 90 85 82 81 72 78 79 80 78 80 78 83 89 60 58 57 56 55 55 58 60 56 44 34 23 21 23 24 23 22 23 22 23 23 24 24 24
82 85 90 84 93 93 91 92 89 84 74 72 73 76 72 65 63 68 82 64 60 59 59 59 58 56 57 62 65 62 48 38 30 28 27 27 28 26 24 23 23 24 27
94 92 87 94 95 94 92 93 92 88 83 75 67 67 70 74 76 65 63 82 70 63 63 65 67 64 61 60 60 63 68 69 62 56 51 49 46 37 31 28 27 27 28
92 85 89 91 92 94 95 95 93 86 86 84 78 70 63 63 62 77 78 68 73 85 68 70 72 73 71 68 68 78 65 70 76 77 76 74 66 48 61 74 69 47 62
89 82 84 84 89 88 86 90 88 87 86 82 77 67 52 42 48 56 72 74 73 71 79 80 76 78 78 76 72 97 97 88 80 81 79 82 82 71 76 79 80 84 86
90 81 88 83 85 90 86 68 61 63 71 82 74 47 49 52 55 60 60 68 74 68 70 79 76 78 82 80 76 73 82 88 81 79 80 84 88 84 79 78 82 82 79
98 84 93 89 86 87 82 78 69 73 51 54 69 60 57 55 57 56 60 64 80 69 72 70 73 78 84 77 73 72 71 78 86 81 80 88 95 92 87 83 82 81 76
99 100 98 99 96 76 72 78 76 65 58 57 58 76 76 76 74 67 74 70 69 70 69 70 74 76 84 91 76 75 75 75 78 90 99 93 98 90 91 84 83 83 96
92 86 93 98 99 92 84 78 75 69 71 70 66 72 85 76 76 75 69 71 72 71 72 74 75 76 77 80 78 80 84 80 78 82 92 99 100 92 93 88 81 91 97
90 86 89 93 88 82 81 82 81 78 77 85 88 77 77 80 83 80 82 79 79 79 79 79 80 82 81 89 89 90 85 84 89 89 92 94 100 98 94 93 99 94 91
81 82 87 88 81 84 78 78 75 75 82 77 83 76 73 80 87 92 92 91 87 84 85 87 89 89 88 89 91 93 90 89 87 87 89 91 100 100 97 100 99 98 91
86 77 79 80 73 75 72 72 68 72 70 72 70 77 89 87 83 88 94 93 93 94 88 87 89 91 89 95 96 94 92 88 88 89 94 96 99 100 100 95 99 97 98
85 85 78 77 72 63 60 67 54 54 65 71 80 64 85 94 94 96 99 96 99 99 95 91 88 84 86 96 93 93 87 84 89 92 96 98 98 94 95 94 97 100 97
84 95 86 62 62 60 63 65 69 64 64 63 69 80 85 90 92 100 99 100 99 97 99 83 90 85 89 90 85 89 82 84 92 92 92 92 97 96 94 96 99 100 98
66 72 84 57 60 68 70 67 63 59 72 86 87 92 97 100 100 100 100 87 83 97 94 94 88 78 92 92 90 88 85 85 89 91 95 97 96 96 96 98 99 93 90
66 67 68 68 71 67 65 55 52 56 58 57 66 99 100 99 97 100 95 94 82 80 91 91 92 93 90 92 90 93 91 89 90 88 85 87 88 90 92 93 97 91 87
64 71 64 55 50 46 43 41 42 41 45 50 54 98 83 96 100 99 97 93 84 85 85 85 93 100 94 95 96 94 89 84 84 89 91 90 93 91 88 90 86 81 72
52 47 44 41 39 40 40 40 39 41 42 51 73 100 95 98 100 98 96 94 86 89 87 86 96 100 99 87 82 82 85 89 90 91 94 90 88 88 84 82 80 68 28
39 39 42 44 46 46 49 52 53 54 60 59 90 99 100 99 100 100 99 97 93 91 91 90 91 84 84 85 87 87 92 88 88 86 83 86 86 82 71 37 15 10 8
49 52 54 56 60 63 65 66 70 72 79 90 98 99 99 100 98 100 100 97 93 91 89 86 87 85 86 86 90 92 87 88 88 81 77 62 28 12 10 9 7 7 9
58 59 62 65 68 71 72 74 77 87 99 98 99 98 99 99 100 96 98 92 90 90 90 88 87 86 87 89 89 85 88 81 62 24 14 12 9 8 7 8 10 14 26
59 61 66 72 78 82 84 91 96 97 99 99 97 99 99 99 96 96 92 91 94 90 89 89 88 89 86 82 78 66 42 19 23 20 12 9 8 9 11 24 29 32 30
61 68 72 75 82 86 85 90 92 95 98 97 96 95 94 93 93 95 95 95 92 90 87 84 80 63 33 16 11 12 13 13 15 20 13 11 16 25 31 34 31 31 31
66 70 76 76 76 80 82 84 86 91 95 95 98 95 98 95 96 98 94 90 88 82 58 24 12 9 8 9 10 12 12 13 15 15 14 23 39 37 36 34 31 32 31
74 74 80 83 81 86 89 92 96 100 97 98 99 97 97 98 97 90 76 36 17 9 6 6 6 7 8 9 10 11 12 15 21 30 30 40 39 37 37 34 33 32 32
80 78 81 89 88 87 87 92 100 100 100 97 99 99 98 92 74 27 10 6 6 6 7 8 8 9 10 11 12 12 13 15 21 52 39 44 39 40 37 36 36 35 35